Location: Cincinnati Observatory Center
(39.1389°N, 84.4225°W)
Time: 20:04:53
(UTC-04:00)

Amateur Radio Satellites - All Passes

Search period start: 07 July 2015 19:34
Search period end: 08 July 2015 19:34
Location: Cincinnati Observatory Center, 39.1389°N, 84.4225°W

Satellite Date Start Highest point End Downlink Frequencies (MHz)
Time Altitude Azimuth
Cosmos 2504 07 Jul 19:36:25 19:41:35 19° 277° (W) 19:46:31 435.465 / 435.565
MOZHAYETS 4 07 Jul 19:40:10 19:42:31 13° 295° (WNW) 19:44:38
DANDE 07 Jul 19:40:32 19:43:07 45° 78° (ENE) 19:45:38 436.750
GOMX 1 07 Jul 19:49:16 19:51:51 15° 67° (ENE) 19:54:34 467.674
CUSAT 1 07 Jul 19:54:07 19:56:35 41° 263° (W) 19:59:12 437.405
HO-68 07 Jul 19:58:48 20:03:57 23° 60° (ENE) 20:09:20 435.675
CUBESAT XI-V 07 Jul 20:14:42 20:19:20 61° 286° (WNW) 20:23:54 437.345
DOVE 4 07 Jul 20:15:48 20:18:33 16° 68° (ENE) 20:21:24 437.250
CUTE-I 07 Jul 20:25:48 20:29:37 19° 269° (W) 20:33:15 437.470
BRITE-PL 07 Jul 20:29:10 20:34:30 62° 75° (ENE) 20:39:30 437.365/2234.400
COMPASS 1 07 Jul 20:32:03 20:33:10 11° 65° (ENE) 20:34:31 437.405
PRISM 07 Jul 20:32:21 20:36:30 59° 100° (E) 20:40:37 437.425
CINEMA 3 07 Jul 20:37:08 20:37:59 11° 66° (ENE) 20:39:05 145.822/145.860
CUTE 1.7 + AOD 2 07 Jul 20:51:09 20:54:45 29° 71° (ENE) 20:58:26 437.475
CANX-2 07 Jul 20:54:51 20:58:40 35° 72° (ENE) 21:02:33 2200.000
STRAND 1 07 Jul 20:57:45 21:02:55 76° 285° (WNW) 21:08:01 437.568
Cosmos 2499 07 Jul 21:01:59 21:06:57 18° 64° (ENE) 21:12:34 435.465 / 435.565
GONETS M04 07 Jul 21:23:14 21:31:56 76° 265° (W) 21:40:34
GOMX 1 07 Jul 21:24:35 21:29:38 61° 259° (W) 21:34:22 467.674
M-CUBED/EXP-1 PRIME 07 Jul 21:27:43 21:30:09 15° 97° (E) 21:32:52 437.505
DELFI C3 07 Jul 21:28:09 21:29:38 12° 66° (ENE) 21:31:19 145.870
SEEDS 07 Jul 21:32:58 21:37:07 72° 76° (ENE) 21:41:19 437.485
AAUSAT CUBESAT 2 07 Jul 21:35:01 21:39:00 49° 74° (ENE) 21:43:03 437.432
UWE-3 07 Jul 21:42:19 21:45:21 20° 69° (ENE) 21:48:28 435.000/436.395/437.385
HO-68 07 Jul 21:44:00 21:51:07 70° 257° (WSW) 21:58:16 435.675
DOVE 4 07 Jul 21:51:21 21:56:03 50° 261° (W) 22:00:28 437.250
COMPASS 1 07 Jul 22:04:16 22:08:22 61° 260° (W) 22:12:30 437.405
DX 1 07 Jul 22:06:33 22:07:44 11° 64° (ENE) 22:09:11 434.975-435.025
PRISM 07 Jul 22:09:51 22:11:29 12° 295° (WNW) 22:12:54 437.425
BRITE-PL 07 Jul 22:10:10 22:13:23 15° 270° (W) 22:16:14 437.365/2234.400
CINEMA 3 07 Jul 22:10:19 22:14:46 68° 259° (W) 22:19:03 145.822/145.860
HUMSAT D 07 Jul 22:11:16 22:13:11 13° 67° (ENE) 22:15:18 437.325/437.525
ZACube-1 07 Jul 22:20:32 22:24:27 41° 73° (ENE) 22:28:23 437.345
UKube-1 07 Jul 22:20:36 22:22:54 15° 66° (ENE) 22:25:24 .
Oscar 11 07 Jul 22:20:39 22:24:55 75° 76° (ENE) 22:29:14 145.826/435.025
AUBIESAT-1 07 Jul 22:23:00 22:27:17 51° 105° (ESE) 22:31:48 437.475
CUTE 1.7 + AOD 2 07 Jul 22:27:24 22:30:42 22° 267° (W) 22:33:56 437.475
CANX-2 07 Jul 22:31:49 22:34:44 18° 268° (W) 22:37:32 2200.000
CUBEBUG 2 07 Jul 22:34:07 22:38:23 79° 258° (WSW) 22:42:35 437.445
50 SAT 07 Jul 22:44:48 22:46:57 15° 68° (ENE) 22:49:14 437.505
Cosmos 2499 07 Jul 22:53:09 23:01:11 87° 264° (W) 23:09:49 435.465 / 435.565
FUNcube-1 07 Jul 22:54:44 22:58:55 79° 258° (WSW) 23:03:05 145.935
AISAT 07 Jul 22:57:01 23:00:28 23° 68° (ENE) 23:03:59 437.250
DELFI C3 07 Jul 23:00:24 23:04:19 51° 261° (W) 23:08:15 145.870
M-CUBED/EXP-1 PRIME 07 Jul 23:00:56 23:05:10 53° 290° (WNW) 23:09:40 437.505
CUBEBUG 1 07 Jul 23:04:18 23:06:35 14° 66° (ENE) 23:09:03 437.445
ANTELSAT 07 Jul 23:05:50 23:07:59 14° 90° (E) 23:10:23 437.575/2403.000
AAUSAT CUBESAT 2 07 Jul 23:13:10 23:14:58 12° 271° (W) 23:16:33 437.432
TIGRISAT 07 Jul 23:15:55 23:18:45 17° 92° (E) 23:21:47 435.000
UWE-3 07 Jul 23:17:57 23:21:45 31° 264° (W) 23:25:26 435.000/436.395/437.385
GONETS M04 07 Jul 23:23:52 23:27:29 13° 282° (WNW) 23:30:24
PCSat 07 Jul 23:37:24 23:40:22 15° 42° (NE) 23:43:32 145.827
DX 1 07 Jul 23:39:07 23:43:29 69° 258° (WSW) 23:47:52 434.975-435.025
ESTCUBE 1 07 Jul 23:41:40 23:45:56 42° 72° (ENE) 23:50:16 437.505/2401.250
VELOX 1 07 Jul 23:43:54 23:48:21 71° 75° (ENE) 23:52:48 145.980
HUMSAT D 07 Jul 23:44:37 23:48:34 47° 261° (W) 23:52:32 437.325/437.525
SPROUT 07 Jul 23:52:16 23:54:10 13° 66° (ENE) 23:56:16 437.525
UKube-1 07 Jul 23:54:26 23:58:40 49° 260° (W) 00:02:54 .
UNISAT 6 07 Jul 23:56:09 00:00:27 49° 99° (E) 00:04:52 437.425
QB50P1 07 Jul 23:58:07 00:01:08 20° 93° (E) 00:04:16 145.935-145.965
ZACube-1 07 Jul 23:58:37 00:01:04 15° 269° (W) 00:03:19 437.345
AUBIESAT-1 07 Jul 23:58:53 00:01:42 17° 297° (WNW) 00:04:28 437.475
NANOSAT C BR1 08 Jul 00:10:25 00:13:57 26° 95° (E) 00:17:33 145.865
DUCHIFAT 1 08 Jul 00:15:54 00:19:35 30° 96° (E) 00:23:18 145.980
BUGSAT 1 08 Jul 00:16:42 00:19:32 19° 93° (E) 00:22:28 437.445
50 SAT 08 Jul 00:17:45 00:21:17 35° 262° (W) 00:24:51 437.505
TISAT 1 08 Jul 00:18:10 00:20:45 16° 67° (ENE) 00:23:29 437.305
POLYITAN 1 08 Jul 00:25:40 00:29:40 41° 98° (E) 00:33:41 437.675
AISAT 08 Jul 00:32:51 00:36:53 32° 264° (W) 00:40:52 437.250
CUBEBUG 1 08 Jul 00:38:12 00:42:33 53° 260° (W) 00:46:54 437.445
ANTELSAT 08 Jul 00:40:47 00:45:06 52° 286° (WNW) 00:49:29 437.575/2403.000
Cosmos 2499 08 Jul 00:48:57 00:53:31 15° 278° (W) 00:57:40 435.465 / 435.565
TIGRISAT 08 Jul 00:51:33 00:55:42 41° 287° (WNW) 00:59:55 435.000
POPSAT HIP 1 08 Jul 00:54:20 00:58:33 90° 98° (E) 01:02:46 437.405
QB50P2 08 Jul 00:54:36 00:58:51 87° 284° (WNW) 01:03:04 145.880/145.840
RS-15 08 Jul 01:00:09 01:07:25 22° 103° (ESE) 01:15:26 29.354- 29.394
SWISSCUBE 08 Jul 01:09:32 01:11:24 12° 63° (ENE) 01:13:31 437.505
SO-50 08 Jul 01:10:22 01:14:55 36° 50° (NE) 01:19:27 436.795
ITUPSAT 1 08 Jul 01:16:27 01:18:35 13° 63° (ENE) 01:20:58 437.325
PCSat 08 Jul 01:19:12 01:24:39 89° 55° (NE) 01:30:05 145.827
ESTCUBE 1 08 Jul 01:20:00 01:23:03 17° 269° (W) 01:25:57 437.505/2401.250
Cosmos 2491 08 Jul 01:23:58 01:29:11 18° 61° (ENE) 01:34:53 435.465 / 435.565
SPROUT 08 Jul 01:25:36 01:29:50 55° 260° (W) 01:34:04 437.525
QB50P1 08 Jul 01:33:20 01:37:05 32° 289° (WNW) 01:40:48 145.935-145.965
UNISAT 6 08 Jul 01:34:15 01:36:54 15° 293° (WNW) 01:39:24 437.425
NANOSAT C BR1 08 Jul 01:46:18 01:49:43 24° 290° (WNW) 01:53:01 145.865
BUGSAT 1 08 Jul 01:51:31 01:55:05 30° 289° (WNW) 01:58:34 437.445
DUCHIFAT 1 08 Jul 01:52:02 01:55:15 21° 291° (WNW) 01:58:21 145.980
TISAT 1 08 Jul 01:52:13 01:56:14 41° 262° (W) 02:00:14 437.305
Oscar 19 08 Jul 01:59:33 02:02:35 16° 90° (E) 02:05:49 437.125/150
POLYITAN 1 08 Jul 02:02:37 02:05:17 16° 293° (WNW) 02:07:47 437.675
AIST 1 08 Jul 02:18:41 02:21:08 15° 70° (ENE) 02:23:46
BEESAT 08 Jul 02:27:44 02:32:29 71° 75° (ENE) 02:37:17 436.000
KKS-1 08 Jul 02:41:32 02:44:12 16° 66° (ENE) 02:47:01 437.445
SWISSCUBE 08 Jul 02:43:57 02:48:43 72° 258° (WSW) 02:53:32 437.505
SO-50 08 Jul 02:51:08 02:55:23 28° 247° (WSW) 02:59:27 436.795
ITUPSAT 1 08 Jul 02:51:12 02:55:58 68° 259° (WSW) 03:00:47 437.325
PCSat 08 Jul 03:06:00 03:07:25 11° 256° (WSW) 03:08:25 145.827
RS-15 08 Jul 03:07:37 03:18:32 86° 300° (WNW) 03:29:51 29.354- 29.394
Cosmos 2491 08 Jul 03:18:46 03:27:34 89° 83° (E) 03:36:17 435.465 / 435.565
STARS 08 Jul 03:22:45 03:26:22 26° 70° (ENE) 03:30:04 437.465
JAS-2 08 Jul 03:31:44 03:35:17 15° 88° (E) 03:39:29 435.910
Oscar 19 08 Jul 03:37:20 03:42:22 56° 287° (WNW) 03:47:22 437.125/150
YUBILEINY 08 Jul 03:49:11 03:57:42 66° 93° (E) 04:06:19 435.215
AIST 1 08 Jul 03:54:59 03:59:05 41° 267° (W) 04:03:07
ITAMSAT 1 08 Jul 03:57:25 04:02:36 61° 101° (E) 04:07:44 435.822/435.867
BEESAT 08 Jul 04:09:27 04:10:56 11° 272° (W) 04:12:06 436.000
Gurwin Techsat 1B 08 Jul 04:14:08 04:19:29 88° 286° (WNW) 04:24:49 435.225
KKS-1 08 Jul 04:16:12 04:20:30 46° 261° (W) 04:24:47 437.445
STARS 08 Jul 04:59:03 05:02:47 26° 265° (W) 05:06:26 437.465
MOZHAYETS 4 08 Jul 05:01:51 05:06:16 51° 74° (ENE) 05:10:45
HORYU 2 08 Jul 05:10:02 05:14:21 46° 99° (E) 05:18:40 437.375
JAS-2 08 Jul 05:14:12 05:21:07 88° 103° (ESE) 05:28:45 435.910
Cosmos 2491 08 Jul 05:18:06 05:23:22 17° 280° (W) 05:28:04 435.465 / 435.565
RS-15 08 Jul 05:23:36 05:32:54 29° 329° (NNW) 05:42:16 29.354- 29.394
AO-7 08 Jul 05:34:49 05:43:08 65° 104° (ESE) 05:51:24 29.400- 29.500
ITAMSAT 1 08 Jul 05:38:20 05:41:39 17° 296° (WNW) 05:44:45 435.822/435.867
CUBESAT XI-V 08 Jul 05:42:44 05:44:21 12° 64° (ENE) 05:46:14 437.345
YUBILEINY 08 Jul 05:48:14 05:55:20 26° 294° (WNW) 06:02:09 435.215
VERMONT LUNAR 08 Jul 05:53:21 05:55:27 17° 149° (SSE) 05:57:34 437.305
Gurwin Techsat 1B 08 Jul 05:57:01 05:58:46 11° 299° (WNW) 06:00:13 435.225
Cosmos 2504 08 Jul 06:12:07 06:18:51 59° 92° (E) 06:25:40 435.465 / 435.565
STRAND 1 08 Jul 06:35:42 06:38:49 17° 64° (ENE) 06:42:09 437.568
MOZHAYETS 4 08 Jul 06:41:13 06:43:51 15° 270° (W) 06:46:17
BEESAT 3 08 Jul 06:44:44 06:48:30 39° 116° (ESE) 06:52:21 437.485
O/OREOS (USA 219) 08 Jul 06:45:42 06:48:59 21° 102° (ESE) 06:52:23 437.305
HORYU 2 08 Jul 06:47:46 06:50:39 17° 294° (WNW) 06:53:22 437.375
JAS-2 08 Jul 07:01:09 07:05:36 18° 297° (WNW) 07:09:58 435.910
BEESAT 2 08 Jul 07:02:36 07:06:32 48° 117° (ESE) 07:10:33 435.950
CUTE-I 08 Jul 07:02:57 07:07:01 22° 93° (E) 07:11:13 437.470
DANDE 08 Jul 07:09:04 07:11:15 12° 92° (E) 07:13:40 436.750
PHONESAT 2.4 08 Jul 07:09:51 07:11:37 14° 146° (SSE) 07:13:28 2401.200-2431.200
AIST 2 08 Jul 07:12:07 07:14:22 15° 110° (ESE) 07:16:49 435.215
CUBESAT XI-V 08 Jul 07:16:32 07:21:15 73° 259° (WSW) 07:25:59 437.345
CUSAT 1 08 Jul 07:17:23 07:21:15 19° 95° (E) 07:24:44 437.405
PRISM 08 Jul 07:21:15 07:25:04 37° 72° (ENE) 07:28:58 437.425
ISS 08 Jul 07:25:00 07:28:12 62° 139° (SE) 07:31:25 145.825
AO-7 08 Jul 07:28:29 07:35:25 29° 301° (WNW) 07:42:07 29.400- 29.500
VERMONT LUNAR 08 Jul 07:28:55 07:32:00 72° 165° (SSE) 07:35:07 437.305
Cubesat XI-IV 08 Jul 07:37:38 07:42:50 48° 99° (E) 07:48:00 437.490
RS-15 08 Jul 07:43:32 07:50:40 18° 3° (N) 07:58:03 29.354- 29.394
Cosmos 2504 08 Jul 08:06:24 08:11:39 22° 293° (WNW) 08:16:41 435.465 / 435.565
STRAND 1 08 Jul 08:12:31 08:17:35 59° 259° (W) 08:22:42 437.568
M-CUBED/EXP-1 PRIME 08 Jul 08:16:38 08:17:45 11° 61° (ENE) 08:19:03 437.505
BEESAT 3 08 Jul 08:23:32 08:26:37 20° 313° (NW) 08:29:40 437.485
O/OREOS (USA 219) 08 Jul 08:24:09 08:28:13 33° 298° (WNW) 08:32:16 437.305
GONETS M04 08 Jul 08:28:11 08:34:49 26° 84° (E) 08:41:44
BRITE-PL 08 Jul 08:36:43 08:39:23 17° 91° (E) 08:42:11 437.365/2234.400
BEESAT 2 08 Jul 08:42:02 08:44:54 17° 315° (NW) 08:47:39 435.950
CUTE-I 08 Jul 08:42:15 08:47:19 43° 289° (WNW) 08:52:20 437.470
PHONESAT 2.4 08 Jul 08:45:51 08:49:12 57° 161° (SSE) 08:52:36 2401.200-2431.200
DANDE 08 Jul 08:47:22 08:54:23 86° 279° (W) 08:59:37 436.750
AIST 2 08 Jul 08:48:25 08:52:34 51° 305° (NW) 08:56:44 435.215
PRISM 08 Jul 08:57:52 09:00:41 17° 268° (W) 09:03:23 437.425
CUSAT 1 08 Jul 08:57:57 09:03:50 47° 281° (W) 09:08:17 437.405
ISS 08 Jul 09:02:22 09:04:50 19° 336° (NNW) 09:07:17 145.825
VERMONT LUNAR 08 Jul 09:05:52 09:08:57 64° 359° (N) 09:12:03 437.305
AUBIESAT-1 08 Jul 09:10:32 09:13:45 46° 69° (ENE) 09:17:09 437.475
HO-68 08 Jul 09:13:47 09:19:15 24° 92° (E) 09:24:58 435.675
Cubesat XI-IV 08 Jul 09:18:34 09:22:38 22° 295° (WNW) 09:26:31 437.490
SEEDS 08 Jul 09:20:03 09:22:00 13° 90° (E) 09:24:10 437.485
GOMX 1 08 Jul 09:27:54 09:31:47 37° 98° (E) 09:35:40 467.674
Cosmos 2499 08 Jul 09:43:14 09:43:56 10° 79° (ENE) 09:45:14 435.465 / 435.565
M-CUBED/EXP-1 PRIME 08 Jul 09:49:08 09:52:15 38° 257° (WSW) 09:55:31 437.505
COMPASS 1 08 Jul 09:49:14 09:52:33 23° 94° (E) 09:55:57 437.405
DOVE 4 08 Jul 09:51:25 09:55:22 42° 98° (E) 09:59:23 437.250
RS-15 08 Jul 09:57:56 10:08:06 34° 37° (NE) 10:18:51 29.354- 29.394
ANTELSAT 08 Jul 10:05:47 10:06:35 11° 64° (ENE) 10:07:38 437.575/2403.000
CINEMA 3 08 Jul 10:06:21 10:09:57 27° 96° (E) 10:13:41 145.822/145.860
Oscar 11 08 Jul 10:10:27 10:12:51 15° 90° (E) 10:15:27 145.826/435.025
CUTE 1.7 + AOD 2 08 Jul 10:12:24 10:16:42 68° 102° (ESE) 10:20:59 437.475
BRITE-PL 08 Jul 10:14:18 10:18:10 34° 288° (WNW) 10:21:52 437.365/2234.400
TIGRISAT 08 Jul 10:15:01 10:16:57 13° 66° (ENE) 10:19:04 435.000
CANX-2 08 Jul 10:16:25 10:20:45 85° 102° (ESE) 10:25:03 2200.000
GONETS M04 08 Jul 10:22:22 10:31:05 64° 281° (WNW) 10:39:45
PHONESAT 2.4 08 Jul 10:23:48 10:27:13 69° 356° (N) 10:30:40 2401.200-2431.200
CUBEBUG 2 08 Jul 10:26:35 10:29:51 22° 94° (E) 10:33:19 437.445
DANDE 08 Jul 10:36:04 10:37:49 11° 291° (WNW) 10:39:04 436.750
DELFI C3 08 Jul 10:41:02 10:44:10 22° 94° (E) 10:47:23 145.870
VERMONT LUNAR 08 Jul 10:42:47 10:45:53 70° 197° (SSW) 10:49:00 437.305
FUNcube-1 08 Jul 10:44:37 10:47:46 21° 93° (E) 10:51:05 145.935
QB50P1 08 Jul 10:50:53 10:53:00 14° 66° (ENE) 10:55:17 145.935-145.965
SEEDS 08 Jul 10:53:59 10:58:07 48° 286° (WNW) 11:02:14 437.485
AAUSAT CUBESAT 2 08 Jul 10:54:11 10:58:25 73° 284° (WNW) 11:02:36 437.432
UNISAT 6 08 Jul 10:54:22 10:58:18 37° 72° (ENE) 11:02:15 437.425
HO-68 08 Jul 11:00:28 11:07:30 61° 290° (WNW) 11:14:30 435.675
NANOSAT C BR1 08 Jul 11:02:32 11:05:24 18° 68° (ENE) 11:08:23 145.865
BUGSAT 1 08 Jul 11:06:48 11:08:42 13° 66° (ENE) 11:10:48 437.445
GOMX 1 08 Jul 11:07:03 11:09:41 16° 293° (WNW) 11:12:11 467.674
DUCHIFAT 1 08 Jul 11:07:43 11:10:47 20° 69° (ENE) 11:13:58 145.980
UWE-3 08 Jul 11:08:00 11:12:09 51° 99° (E) 11:16:26 435.000/436.395/437.385
POLYITAN 1 08 Jul 11:17:50 11:21:24 28° 71° (ENE) 11:25:03 437.675
COMPASS 1 08 Jul 11:24:34 11:28:14 28° 289° (WNW) 11:31:49 437.405
Cosmos 2499 08 Jul 11:28:56 11:35:57 80° 96° (E) 11:43:10 435.465 / 435.565
DX 1 08 Jul 11:29:17 11:32:34 21° 94° (E) 11:35:57 434.975-435.025
HUMSAT D 08 Jul 11:29:41 11:33:17 28° 96° (E) 11:36:58 437.325/437.525
DOVE 4 08 Jul 11:30:27 11:32:52 15° 293° (WNW) 11:35:08 437.250
VELOX 1 08 Jul 11:37:05 11:39:22 14° 90° (E) 11:41:51 145.980
ANTELSAT 08 Jul 11:38:38 11:42:53 67° 258° (WSW) 11:47:08 437.575/2403.000
UKube-1 08 Jul 11:43:15 11:46:58 28° 96° (E) 11:50:42 .
CINEMA 3 08 Jul 11:43:43 11:47:05 23° 290° (WNW) 11:50:24 145.822/145.860
Oscar 11 08 Jul 11:45:09 11:49:19 45° 287° (WNW) 11:53:27 145.826/435.025
ZACube-1 08 Jul 11:45:46 11:50:02 76° 284° (WNW) 11:54:22 437.345
POPSAT HIP 1 08 Jul 11:45:46 11:49:54 57° 75° (ENE) 11:54:04 437.405
QB50P2 08 Jul 11:46:10 11:50:20 60° 75° (ENE) 11:54:31 145.880/145.840
TIGRISAT 08 Jul 11:49:09 11:53:19 52° 261° (W) 11:57:28 435.000
CUTE 1.7 + AOD 2 08 Jul 11:50:58 11:52:06 11° 295° (WNW) 11:52:59 437.475
50 SAT 08 Jul 11:54:25 11:57:40 25° 95° (E) 12:01:01 437.505
PHONESAT 2.4 08 Jul 12:01:53 12:05:20 86° 187° (S) 12:08:47 2401.200-2431.200
CUBEBUG 2 08 Jul 12:02:52 12:06:35 29° 289° (WNW) 12:10:21 437.445
RS-15 08 Jul 12:10:14 12:22:02 82° 241° (WSW) 12:34:14 29.354- 29.394
DELFI C3 08 Jul 12:15:46 12:19:15 27° 289° (WNW) 12:22:39 145.870
ISS 08 Jul 12:18:06 12:19:46 13° 16° (NNE) 12:21:28 145.825
VERMONT LUNAR 08 Jul 12:20:21 12:22:27 16° 211° (SSW) 12:24:31 437.305
FUNcube-1 08 Jul 12:20:22 12:24:10 31° 288° (WNW) 12:27:59 145.935
AISAT 08 Jul 12:24:05 12:28:23 50° 100° (E) 12:32:39 437.250
QB50P1 08 Jul 12:24:22 12:28:29 49° 261° (W) 12:32:37 145.935-145.965
GONETS M04 08 Jul 12:27:22 12:30:11 11° 305° (NW) 12:32:16
CUBEBUG 1 08 Jul 12:28:28 12:32:15 29° 96° (E) 12:36:03 437.445
UNISAT 6 08 Jul 12:32:23 12:35:17 17° 268° (W) 12:38:00 437.425
NANOSAT C BR1 08 Jul 12:37:06 12:41:00 35° 263° (W) 12:44:53 145.865
BUGSAT 1 08 Jul 12:39:40 12:43:48 51° 260° (W) 12:47:53 437.445
DUCHIFAT 1 08 Jul 12:42:38 12:46:25 31° 263° (W) 12:50:11 145.980
UWE-3 08 Jul 12:46:05 12:48:21 14° 293° (WNW) 12:50:26 435.000/436.395/437.385
HO-68 08 Jul 12:52:01 12:53:59 11° 308° (NW) 12:55:29 435.675
POLYITAN 1 08 Jul 12:53:54 12:57:19 23° 266° (W) 13:00:38 437.675
DX 1 08 Jul 13:05:02 13:08:53 31° 290° (WNW) 13:12:40 434.975-435.025
HUMSAT D 08 Jul 13:05:35 13:08:55 23° 290° (WNW) 13:12:10 437.325/437.525
ESTCUBE 1 08 Jul 13:11:52 13:16:25 74° 284° (WNW) 13:20:55 437.505/2401.250
VELOX 1 08 Jul 13:12:00 13:16:15 47° 287° (WNW) 13:20:27 145.980
SPROUT 08 Jul 13:13:42 13:17:18 26° 95° (E) 13:20:57 437.525
Oscar 19 08 Jul 13:15:15 13:19:04 22° 66° (ENE) 13:23:01 437.125/150
UKube-1 08 Jul 13:19:29 13:22:59 24° 291° (WNW) 13:26:25 .
POPSAT HIP 1 08 Jul 13:24:52 13:26:13 11° 271° (W) 13:27:17 437.405
QB50P2 08 Jul 13:25:44 13:26:41 10° 271° (W) 13:27:21 145.880/145.840
Cosmos 2499 08 Jul 13:25:49 13:30:12 16° 297° (WNW) 13:34:16 435.465 / 435.565
50 SAT 08 Jul 13:29:07 13:32:12 22° 290° (WNW) 13:35:12 437.505
TISAT 1 08 Jul 13:37:46 13:41:29 31° 96° (E) 13:45:14 437.305
ITAMSAT 1 08 Jul 13:39:59 13:40:37 10° 60° (ENE) 13:41:36 435.822/435.867
PHONESAT 2.4 08 Jul 13:40:13 13:43:06 25° 209° (SSW) 13:45:58 2401.200-2431.200
ISS 08 Jul 13:53:33 13:56:44 54° 35° (NE) 13:59:55 145.825
Gurwin Techsat 1B 08 Jul 13:56:46 13:59:56 17° 64° (ENE) 14:03:19 435.225
YUBILEINY 08 Jul 14:01:08 14:08:30 30° 69° (ENE) 14:16:06 435.215
AISAT 08 Jul 14:02:04 14:04:34 15° 295° (WNW) 14:06:54 437.250
CUBEBUG 1 08 Jul 14:05:01 14:08:29 23° 291° (WNW) 14:11:50 437.445
PCSat 08 Jul 14:19:55 14:22:03 13° 105° (ESE) 14:24:32 145.827
Cosmos 2491 08 Jul 14:24:55 14:30:41 21° 81° (E) 14:36:53 435.465 / 435.565
RS-15 08 Jul 14:25:19 14:33:08 19° 258° (WSW) 14:40:13 29.354- 29.394
BEESAT 08 Jul 14:30:02 14:33:26 20° 92° (E) 14:36:59 436.000
AO-7 08 Jul 14:44:04 14:48:51 18° 52° (NE) 14:54:02 29.400- 29.500
SWISSCUBE 08 Jul 14:45:43 14:49:58 31° 96° (E) 14:54:15 437.505
SPROUT 08 Jul 14:49:48 14:53:19 24° 290° (WNW) 14:56:43 437.525
ITUPSAT 1 08 Jul 14:53:10 14:57:31 33° 97° (E) 15:01:53 437.325
Oscar 19 08 Jul 14:53:18 14:58:10 43° 262° (W) 15:03:02 437.125/150
BEESAT 3 08 Jul 15:04:41 15:07:36 19° 46° (NE) 15:10:35 437.485
TISAT 1 08 Jul 15:13:57 15:17:05 20° 292° (WNW) 15:20:06 437.305
ITAMSAT 1 08 Jul 15:14:11 15:19:24 82° 76° (ENE) 15:24:40 435.822/435.867
BEESAT 2 08 Jul 15:23:05 15:26:20 23° 48° (NE) 15:29:36 435.950
SO-50 08 Jul 15:25:53 15:28:07 14° 109° (ESE) 15:30:38 436.795
JAS-2 08 Jul 15:27:14 15:31:37 29° 67° (ENE) 15:36:22 435.910
ISS 08 Jul 15:31:00 15:32:51 14° 230° (SW) 15:34:36 145.825
Gurwin Techsat 1B 08 Jul 15:34:12 15:39:27 63° 259° (W) 15:44:45 435.225
YUBILEINY 08 Jul 15:57:20 16:05:52 57° 269° (W) 16:14:21 435.215
PCSat 08 Jul 15:59:28 16:04:52 78° 298° (WNW) 16:10:20 145.827
Cosmos 2504 08 Jul 15:59:45 16:04:23 17° 65° (ENE) 16:09:37 435.465 / 435.565
BEESAT 08 Jul 16:06:58 16:11:29 41° 289° (WNW) 16:15:56 436.000
HORYU 2 08 Jul 16:07:17 16:11:19 37° 71° (ENE) 16:15:25 437.375
KKS-1 08 Jul 16:08:23 16:12:26 35° 97° (E) 16:16:30 437.445
Cosmos 2491 08 Jul 16:17:51 16:26:42 78° 279° (W) 16:35:33 435.465 / 435.565
AIST 1 08 Jul 16:22:35 16:26:58 68° 279° (W) 16:31:23
SWISSCUBE 08 Jul 16:23:43 16:27:43 26° 292° (WNW) 16:31:38 437.505
ITUPSAT 1 08 Jul 16:31:20 16:35:16 25° 292° (WNW) 16:39:05 437.325
AO-7 08 Jul 16:32:10 16:40:29 78° 70° (ENE) 16:48:52 29.400- 29.500
BEESAT 3 08 Jul 16:41:57 16:45:45 40° 244° (WSW) 16:49:29 437.485
STARS 08 Jul 16:48:55 16:53:15 60° 101° (E) 16:57:34 437.465
O/OREOS (USA 219) 08 Jul 16:55:36 16:59:45 34° 62° (ENE) 17:03:56 437.305
ITAMSAT 1 08 Jul 16:58:16 16:59:40 11° 273° (W) 17:00:41 435.822/435.867
MOZHAYETS 4 08 Jul 16:59:45 17:01:53 13° 89° (E) 17:04:18
BEESAT 2 08 Jul 17:00:47 17:04:27 32° 245° (WSW) 17:08:02 435.950
SO-50 08 Jul 17:03:26 17:08:08 66° 303° (WNW) 17:13:00 436.795
AIST 2 08 Jul 17:11:03 17:15:15 73° 57° (ENE) 17:19:23 435.215
JAS-2 08 Jul 17:12:09 17:16:45 31° 266° (W) 17:21:32 435.910
HORYU 2 08 Jul 17:44:57 17:48:07 19° 267° (W) 17:51:10 437.375
KKS-1 08 Jul 17:45:33 17:48:52 21° 292° (WNW) 17:52:05 437.445
PCSat 08 Jul 17:46:35 17:49:17 13° 320° (NW) 17:51:48 145.827
JUGNU 08 Jul 17:49:38 17:51:08 11° 183° (S) 17:52:36 437.505
Cosmos 2504 08 Jul 17:49:54 17:57:36 86° 264° (W) 18:05:51 435.465 / 435.565
Cosmos 2491 08 Jul 18:20:30 18:25:23 15° 302° (WNW) 18:29:41 435.465 / 435.565
CUTE-I 08 Jul 18:23:30 18:28:15 34° 69° (ENE) 18:33:05 437.470
STARS 08 Jul 18:27:16 18:29:15 13° 295° (WNW) 18:31:00 437.465
AO-7 08 Jul 18:28:04 18:34:13 21° 269° (W) 18:40:00 29.400- 29.500
MOZHAYETS 4 08 Jul 18:34:58 18:39:33 56° 286° (WNW) 18:44:06
O/OREOS (USA 219) 08 Jul 18:35:31 18:38:59 21° 258° (WSW) 18:42:20 437.305
GONETS M04 08 Jul 18:41:57 18:43:20 11° 54° (NE) 18:45:28
SO-50 08 Jul 18:48:05 18:49:44 11° 325° (NW) 18:51:13 436.795
SRMSAT 08 Jul 18:50:22 18:52:02 11° 179° (S) 18:53:41 437.500
Cubesat XI-IV 08 Jul 18:58:27 19:03:47 72° 74° (ENE) 19:09:11 437.490
CUBESAT XI-V 08 Jul 19:14:47 19:18:53 30° 95° (E) 19:22:59 437.345
